(2013 BM18) |
Classification: Apollo [NEO] SPK-ID: 3624749 |
[ hide orbit diagram ]
For accurate long-term ephemerides, please instead use our Horizons system.This orbit viewer was implemented using two-body methods, and hence should not be used for determining accurate long-term trajectories (over several years or decades) or planetary encounter circumstances.
[ revert to old Java-based viewer ]
Orbital Elements at Epoch 2456310.5 (2013-Jan-18.0) TDB
Reference: JPL 4 (heliocentric ecliptic J2000)
Element | Value | Uncertainty (1-sigma) | Units |
e | .4369836424982184 | 0.0014277 | |
a | 1.670549610504705 | 0.0040571 | au |
q | .9405467567323792 | 0.00010093 | au |
i | 8.421591071484382 | 0.021954 | deg |
node | 116.8178050760154 | 0.00097094 | deg |
peri | 325.8413968555445 | 0.0028718 | deg |
M | 13.1100512918874 | 0.053772 | deg |
tp | 2456281.779672815308 (2012-Dec-20.27967282) | 0.013176 | TDB |
period | 788.655784503846 2.16 | 2.873 0.007866 | d yr |
n | .4564729088070797 | 0.0016629 | deg/d |
Q | 2.400552464277031 | 0.00583 | au |
|
| | Orbit Determination Parameters
Additional Information
|
[ show covariance matrix ]
Physical Parameter Table
Parameter |
Symbol |
Value |
Units |
Sigma |
Reference |
Notes |
absolute magnitude |
H |
27.0 |
|
n/a |
MPO250183 |
|
|
[ show close-approach data ]
|